Madrid Cuatro Vientos, Spain

3:49 AM CEST on July 26, 2017 (GMT +0200)
Madrid Cuatro Vientos

Weather History for LEVS - March, 2013

Change the Weather History Date:

Sunday, March 10, 2013

  Actual Average Record
Temperature  
Mean Temperature 46 °F -  
Max Temperature 51 °F 59 °F 79 °F (2017)
Min Temperature 42 °F 41 °F 32 °F (2005)
Degree Days  
Heating Degree Days 18    
Moisture  
Dew Point 41 °F    
Average Humidity 82    
Maximum Humidity 100    
Minimum Humidity 66    
Precipitation  
Precipitation 0.00 in - - ()
Sea Level Pressure  
Sea Level Pressure 29.71 in    
Wind  
Wind Speed 14 mph ()    
Max Wind Speed 28 mph    
Max Gust Speed 39 mph    
Visibility 6.2 miles    
Events Rain    
Averages and records for this station are not official NWS values.
T = Trace of Precipitation, MM = Missing Value Source: Averaged Metar Reports

Daily Weather History Graph

Daily Weather History Graph

Search for Another Location

Airport or City:

Trip Planner

Search our weather history database for the weather conditions in past years. The results will help you decide how hot, cold, wet, or windy it might be!

Date:

Astronomy

Mar. 10, 2013 Rise Set
Actual Time 7:34 AM CET 7:16 PM CET
Civil Twilight 7:07 AM CET 7:43 PM CET
Nautical Twilight 6:36 AM CET 8:15 PM CET
Astronomical Twilight 6:04 AM CET 8:47 PM CET
Moon 6:26 AM CET (3/10) 6:08 PM CET (3/10)
Length of Visible Light 12h 36m
Length of Day
11h 41m
Waning Crescent, 2% of the Moon is Illuminated
Mar 10
Waning Crescent
Mar 11
New
Mar 19
First Quarter
Mar 27
Full
Apr 3
Last Quarter

Hourly Weather History & Observations

Time (CET) Temp. Windchill Dew Point Humidity Pressure Visibility Wind Dir Wind Speed Gust Speed Precip Events Conditions
7:00 AM 42.8 °F 34.8 °F 42.8 °F 100% 29.68 in 6.2 mi SW 17.3 mph - N/A   Mostly Cloudy
7:30 AM 42.8 °F 35.8 °F 42.8 °F 100% 29.68 in 6.2 mi SW 13.8 mph - N/A   Mostly Cloudy
8:00 AM 42.8 °F 35.8 °F 42.8 °F 100% 29.68 in 6.2 mi WSW 13.8 mph - N/A   Mostly Cloudy
8:30 AM 42.8 °F 37.5 °F 42.8 °F 100% 29.71 in 6.2 mi WSW 9.2 mph - N/A   Mostly Cloudy
9:00 AM 42.8 °F 36.2 °F 42.8 °F 100% 29.71 in 6.2 mi WSW 12.7 mph - N/A   Mostly Cloudy
9:30 AM 44.6 °F 38.8 °F 42.8 °F 93% 29.71 in 6.2 mi WSW 11.5 mph - N/A   Mostly Cloudy
10:00 AM 44.6 °F 39.2 °F 42.8 °F 93% 29.74 in 6.2 mi SW 10.4 mph - N/A   Scattered Clouds
10:30 AM 46.4 °F 40.1 °F 42.8 °F 87% 29.74 in 6.2 mi SW 15.0 mph - N/A   Mostly Cloudy
11:00 AM 46.4 °F 40.7 °F 42.8 °F 87% 29.74 in 6.2 mi SW 12.7 mph - N/A   Mostly Cloudy
11:30 AM 46.4 °F 39.8 °F 42.8 °F 87% 29.74 in 6.2 mi SW 16.1 mph - N/A   Mostly Cloudy
12:00 PM 48.2 °F - 42.8 °F 82% 29.74 in 6.2 mi WSW 19.6 mph - N/A   Mostly Cloudy
12:30 PM 50.0 °F - 42.8 °F 76% 29.74 in 6.2 mi WSW 18.4 mph - N/A   Mostly Cloudy
1:00 PM 50.0 °F - 41.0 °F 71% 29.74 in 6.2 mi WSW 17.3 mph - N/A   Mostly Cloudy
1:30 PM 51.8 °F - 41.0 °F 67% 29.71 in 6.2 mi WSW 18.4 mph - N/A   Mostly Cloudy
2:00 PM 50.0 °F - 39.2 °F 66% 29.71 in 6.2 mi WSW 18.4 mph - N/A   Mostly Cloudy
2:30 PM 51.8 °F - 41.0 °F 67% 29.71 in 6.2 mi SW 19.6 mph 34.5 mph N/A   Mostly Cloudy
3:00 PM 51.8 °F - 41.0 °F 67% 29.71 in 6.2 mi SW 20.7 mph 32.2 mph N/A   Mostly Cloudy
3:17 PM 48.2 °F - 39.2 °F 71% 29.71 in 6.2 mi WSW 20.7 mph 36.8 mph N/A Rain Rain Showers
3:30 PM 46.4 °F 37.5 °F 39.2 °F 76% 29.71 in 6.2 mi WSW 27.6 mph 39.1 mph N/A   Mostly Cloudy
3:47 PM 46.4 °F 38.7 °F 39.2 °F 76% 29.71 in 5.6 mi West 20.7 mph - N/A Rain Rain Showers
4:00 PM 46.4 °F 39.8 °F 41.0 °F 81% 29.71 in 6.2 mi West 16.1 mph 27.6 mph N/A   Mostly Cloudy
4:30 PM 48.2 °F - 41.0 °F 76% 29.68 in 6.2 mi WSW 12.7 mph - N/A   Mostly Cloudy
5:00 PM 48.2 °F - 39.2 °F 71% 29.68 in 6.2 mi SW 15.0 mph - N/A   Mostly Cloudy
5:30 PM 48.2 °F - 39.2 °F 71% 29.68 in 6.2 mi SW 16.1 mph 27.6 mph N/A   Mostly Cloudy
6:00 PM 46.4 °F 40.4 °F 39.2 °F 76% 29.68 in 6.2 mi SW 13.8 mph - N/A   Mostly Cloudy
6:30 PM 46.4 °F 39.8 °F 39.2 °F 76% 29.68 in 6.2 mi WSW 16.1 mph - N/A   Mostly Cloudy
7:00 PM 46.4 °F 40.1 °F 41.0 °F 81% 29.68 in 6.2 mi WSW 15.0 mph - N/A   Mostly Cloudy
7:30 PM 44.6 °F 37.2 °F 41.0 °F 87% 29.71 in 6.2 mi WSW 17.3 mph - N/A   Mostly Cloudy
8:00 PM 44.6 °F 37.2 °F 41.0 °F 87% 29.71 in 6.2 mi WSW 17.3 mph - N/A   Mostly Cloudy